Weather reports worldwide

Advertisment
Rostherne No 2, United Kingdom (3351): temperature & dewpoint: 19.05.2019 23:00:00 - 25.05.2019 23:00:00 (BST)Rostherne No 2, United Kingdom (3351): wind speed: 19.05.2019 23:00:00 - 25.05.2019 23:00:00 (BST)Rostherne No 2, United Kingdom (3351): wind direction: 19.05.2019 23:00:00 - 25.05.2019 23:00:00 (BST)Rostherne No 2, United Kingdom (3351): reduced air pressure: 19.05.2019 23:00:00 - 25.05.2019 23:00:00 (BST)Rostherne No 2, United Kingdom (3351): visibility: 19.05.2019 23:00:00 - 25.05.2019 23:00:00 (BST)Rostherne No 2, United Kingdom (3351): sunshine duration: 19.05.2019 23:00:00 - 25.05.2019 23:00:00 (BST)Rostherne No 2, United Kingdom (3351): precipitation: 19.05.2019 23:00:00 - 25.05.2019 23:00:00 (BST)
Date & Time tt [°C] td [°C] ff [km/h] ff [kn] dd ppp [hPa] vv [km] sd [min] rr [mm]
25.05.2019 23:00:00 14,5 12,5 5 3 SSW 1015,9 45 0 0,0
25.05.2019 22:00:00 13,4 12,9 5 3 S 1016,1 11 0 0,0
25.05.2019 21:00:00 13,8 13,2 4 2 SSE 1016,5 5 0 0,2
25.05.2019 20:00:00 14,2 12,8 4 2 NNW 1017,1 4,3 0 0,0
25.05.2019 19:00:00 15,0 12,7 13 7 WNW 1017,4 5 0 0,0
25.05.2019 18:00:00 15,2 12,2 15 8 NW 1017,7 15 0 0,0
25.05.2019 17:00:00 16,5 11,5 16 9 WNW 1017,7 30 0 0,0
25.05.2019 16:00:00 16,8 11,3 15 8 NW 1017,9 35 0 0,0
25.05.2019 15:00:00 17,0 11,1 13 7 NNW 1018,2 35 0 0,0
25.05.2019 14:00:00 16,5 10,8 18 10 NW 1018,7 30 6 0,0
25.05.2019 13:00:00 17,4 11,1 16 9 WNW 1018,9 35 6 0,0
25.05.2019 12:00:00 17,5 10,3 15 8 WNW 1018,8 30 24 0,0
25.05.2019 11:00:00 16,6 8,8 13 7 WNW 1019,1 15 60 0,0
25.05.2019 10:00:00 15,0 9,6 9 5 WNW 1019,4 29 60 0,0
25.05.2019 09:00:00 12,9 8,8 9 5 WNW 1019,6 26 54 0,0
25.05.2019 08:00:00 11,9 8,5 11 6 NW 1019,6 24 24 0,0
25.05.2019 07:00:00 10,7 8,8 5 3 NNW 1019,5 20 18 0,0
25.05.2019 06:00:00 9,9 9,5 2 1 WNW 1019,2 12 0 0,0
25.05.2019 05:00:00 9,4 8,5 8 4 NW 1018,8 4,7 0 0,0
25.05.2019 04:00:00 10,9 9,8 11 6 WNW 1018,7 6 0 0,0
25.05.2019 03:00:00 12,3 10,9 16 9 NW 1018,7 6 0 0,0
25.05.2019 02:00:00 12,5 11,2 13 7 WNW 1018,6 10 0 0,0
25.05.2019 01:00:00 12,3 11,1 9 5 WNW 1018,8 9 - 0,0
25.05.2019 00:00:00 13,0 11,1 8 4 NNW 1019,0 10 0 0,0
24.05.2019 23:00:00 12,1 10,1 4 2 WNW 1019,0 21 0 0,0
24.05.2019 22:00:00 12,1 9,0 8 4 NW 1018,8 25 0 0,0
24.05.2019 21:00:00 13,6 9,2 13 7 WNW 1018,5 40 0 0,0
24.05.2019 20:00:00 14,1 9,6 9 5 NW 1018,6 40 18 0,0
24.05.2019 19:00:00 14,7 9,4 18 10 NNW 1018,3 40 0 0,0
24.05.2019 18:00:00 15,0 9,0 15 8 NW 1018,4 30 6 0,0
24.05.2019 17:00:00 16,1 10,6 18 10 NW 1018,4 40 6 0,0
24.05.2019 16:00:00 15,9 9,4 24 13 NW 1018,5 28 0 0,0
24.05.2019 15:00:00 16,2 9,5 21 11 NW 1018,3 35 36 0,0
24.05.2019 14:00:00 17,3 10,0 26 14 WNW 1018,5 40 54 0,0
24.05.2019 13:00:00 16,3 9,3 18 10 NW 1018,4 45 42 0,0
24.05.2019 12:00:00 14,6 7,6 18 10 NW 1018,4 35 0 0,0
24.05.2019 11:00:00 14,7 7,5 18 10 WNW 1018,3 45 0 0,0
24.05.2019 10:00:00 14,5 7,3 16 9 NW 1018,1 35 24 0,0
24.05.2019 09:00:00 14,6 9,3 15 8 NW 1017,8 40 54 0,0
24.05.2019 08:00:00 12,9 8,3 11 6 WNW 1017,6 30 42 0,0
24.05.2019 07:00:00 11,4 9,8 5 3 NNW 1017,3 10 54 0,0
24.05.2019 06:00:00 9,7 9,2 8 4 W 1017,1 4,7 0 0,0
24.05.2019 05:00:00 10,6 10,4 8 4 W 1016,9 5 0 0,0
24.05.2019 04:00:00 10,1 9,9 5 3 W 1017,0 3,3 0 0,0
24.05.2019 03:00:00 9,0 8,8 8 4 WNW 1016,9 3,2 0 0,0
24.05.2019 02:00:00 8,4 8,0 4 2 WNW 1016,8 3,7 0 0,0
24.05.2019 01:00:00 9,3 8,5 4 2 WNW 1016,7 6 - 0,0
24.05.2019 00:00:00 10,1 9,1 5 3 WNW 1016,7 12 0 0,0
23.05.2019 23:00:00 10,7 9,1 5 3 NW 1016,6 22 0 0,0
23.05.2019 22:00:00 11,6 9,3 11 6 WNW 1016,6 35 0 0,0
23.05.2019 21:00:00 13,4 8,5 11 6 NNW 1016,3 45 18 0,0
23.05.2019 20:00:00 14,9 9,0 16 9 NW 1016,1 40 54 0,0
23.05.2019 19:00:00 16,6 9,2 18 10 NW 1015,5 30 54 0,0
23.05.2019 18:00:00 16,7 8,2 16 9 NNW 1015,5 35 54 0,0
23.05.2019 17:00:00 18,8 8,2 16 9 NW 1015,3 40 60 0,0
23.05.2019 16:00:00 19,0 7,6 16 9 NW 1015,2 35 54 0,0
23.05.2019 15:00:00 19,3 7,6 13 7 W 1015,3 30 42 0,0
23.05.2019 14:00:00 17,8 7,1 8 4 WNW 1015,7 30 48 0,0
23.05.2019 13:00:00 18,1 9,4 9 5 SSW 1015,9 27 60 0,0
23.05.2019 12:00:00 16,5 6,9 8 4 W 1016,2 29 60 0,0
23.05.2019 11:00:00 15,3 8,5 5 3 SW 1016,6 26 54 0,0
23.05.2019 10:00:00 14,0 7,5 5 3 SW 1016,7 30 48 0,0
23.05.2019 09:00:00 12,3 9,4 5 3 SSE 1016,9 25 18 0,0
23.05.2019 08:00:00 10,4 8,7 5 3 SE 1017,2 19 24 0,0
23.05.2019 07:00:00 8,5 8,4 4 2 S 1017,0 7 12 0,0
23.05.2019 06:00:00 6,4 6,2 5 3 SSE 1016,8 1,7 0 0,0
23.05.2019 05:00:00 6,0 5,7 5 3 SE 1016,9 2,9 0 0,0
23.05.2019 04:00:00 5,9 5,6 2 1 ESE 1017,1 2,9 0 0,0
23.05.2019 03:00:00 5,6 5,2 4 2 SSE 1017,5 2,0 0 0,0
23.05.2019 02:00:00 6,3 5,6 5 3 SSE 1017,6 7 0 0,0
23.05.2019 01:00:00 8,1 7,0 5 3 WNW 1017,8 11 - 0,0
23.05.2019 00:00:00 8,7 7,5 5 3 W 1017,8 23 0 0,0
22.05.2019 23:00:00 9,1 7,2 8 4 WNW 1018,0 26 0 0,0
22.05.2019 22:00:00 10,6 7,8 4 2 NW 1018,2 35 0 0,0
22.05.2019 21:00:00 12,6 8,3 8 4 NW 1018,1 35 6 0,0
22.05.2019 20:00:00 14,5 8,9 13 7 NW 1018,0 40 6 0,0
22.05.2019 19:00:00 14,9 9,3 16 9 NW 1018,0 35 0 0,0
22.05.2019 18:00:00 15,3 9,3 15 8 NW 1018,2 35 0 0,0
22.05.2019 17:00:00 16,5 9,4 18 10 WNW 1018,2 30 12 0,0
22.05.2019 16:00:00 17,1 10,2 18 10 WNW 1018,3 20 12 0,0
22.05.2019 15:00:00 17,0 10,2 15 8 WNW 1018,3 40 30 0,0
22.05.2019 14:00:00 16,4 10,5 11 6 W 1018,6 30 12 0,0
22.05.2019 13:00:00 16,5 8,6 9 5 W 1018,8 40 12 0,0
22.05.2019 12:00:00 15,1 8,4 11 6 WSW 1019,0 35 30 0,0
22.05.2019 11:00:00 13,4 8,6 9 5 SSW 1019,3 24 0 0,0
22.05.2019 10:00:00 11,4 7,1 8 4 S 1019,4 45 0 0,0
22.05.2019 09:00:00 11,0 7,6 4 2 SE 1019,5 26 0 0,0
22.05.2019 08:00:00 9,5 6,9 8 4 SSE 1019,6 30 0 0,0
22.05.2019 07:00:00 8,6 7,5 9 5 S 1019,6 17 0 0,2
22.05.2019 06:00:00 8,1 7,0 2 1 SE 1019,8 17 0 0,0
22.05.2019 05:00:00 8,1 6,8 5 3 SSE 1019,8 21 0 0,0
22.05.2019 04:00:00 8,9 6,7 2 1 SSW 1020,4 27 0 0,0
22.05.2019 03:00:00 8,5 7,4 8 4 SW 1020,5 50 0 0,0
22.05.2019 02:00:00 6,6 5,8 8 4 SE 1020,5 50 0 0,0
22.05.2019 01:00:00 6,3 5,1 2 1 N 1020,8 40 - 0,0
22.05.2019 00:00:00 6,7 4,7 2 1 WSW 1020,8 50 0 0,0
21.05.2019 23:00:00 8,2 5,5 8 4 WNW 1020,8 50 0 0,0
21.05.2019 22:00:00 9,2 5,1 5 3 NW 1020,8 50 0 0,0
21.05.2019 21:00:00 11,6 4,7 9 5 NW 1020,4 50 48 0,0
21.05.2019 20:00:00 13,5 4,2 15 8 NW 1020,1 45 60 0,0
21.05.2019 19:00:00 14,5 3,8 18 10 NW 1020,1 45 60 0,0
21.05.2019 18:00:00 15,3 4,9 21 11 WNW 1020,2 35 60 0,0
21.05.2019 17:00:00 15,9 5,6 18 10 NW 1020,2 35 60 0,0
21.05.2019 16:00:00 16,6 7,0 18 10 WNW 1020,2 23 60 0,0
21.05.2019 15:00:00 16,8 6,8 21 11 WNW 1020,1 30 60 0,0
21.05.2019 14:00:00 16,5 7,0 22 12 WNW 1020,0 35 54 0,0
21.05.2019 13:00:00 14,9 6,9 18 10 NW 1019,8 35 42 0,0
21.05.2019 12:00:00 15,6 8,6 21 11 WNW 1019,8 35 48 0,0
21.05.2019 11:00:00 14,8 8,0 18 10 NW 1019,5 35 54 0,0
21.05.2019 10:00:00 14,0 8,2 18 10 NW 1019,5 50 54 0,0
21.05.2019 09:00:00 14,0 10,0 15 8 NW 1019,2 30 30 0,0
21.05.2019 08:00:00 11,6 9,8 11 6 NNW 1018,9 19 6 0,0
21.05.2019 07:00:00 9,8 9,4 11 6 NW 1018,6 23 6 0,0
21.05.2019 06:00:00 8,3 8,1 5 3 W 1018,3 15 0 0,0
21.05.2019 05:00:00 8,2 8,1 2 1 NNW 1018,1 14 0 0,0
21.05.2019 04:00:00 6,4 5,9 5 3 E 1018,0 10 0 0,0
21.05.2019 03:00:00 7,4 6,9 8 4 W 1017,7 14 0 0,0
21.05.2019 02:00:00 8,1 7,7 9 5 WNW 1017,3 18 0 0,0
21.05.2019 01:00:00 5,8 4,9 0 0 N 1017,4 12 - 0,0
21.05.2019 00:00:00 7,3 6,6 8 4 WNW 1017,3 13 0 0,0
20.05.2019 23:00:00 8,1 6,8 4 2 NNW 1017,2 18 0 0,0
20.05.2019 22:00:00 9,3 6,4 4 2 WNW 1016,9 40 0 0,0
20.05.2019 21:00:00 11,6 6,8 15 8 NW 1016,2 40 48 0,0
20.05.2019 20:00:00 13,6 6,5 18 10 NW 1015,8 40 60 0,0
20.05.2019 19:00:00 15,1 7,2 21 11 NW 1015,3 30 60 0,0
20.05.2019 18:00:00 16,4 8,1 18 10 NW 1015,0 30 60 0,0
20.05.2019 17:00:00 16,8 8,2 18 10 NW 1014,7 35 54 0,0
20.05.2019 16:00:00 15,9 7,7 16 9 NW 1014,6 30 54 0,0
20.05.2019 15:00:00 16,6 9,1 21 11 NW 1014,3 20 60 0,0
20.05.2019 14:00:00 17,5 9,7 21 11 WNW 1014,3 22 42 0,0
20.05.2019 13:00:00 17,1 9,1 18 10 NW 1014,1 35 54 0,0
20.05.2019 12:00:00 16,5 9,9 18 10 NW 1013,9 35 36 0,0
20.05.2019 11:00:00 15,2 9,1 16 9 NW 1013,9 35 24 0,0
20.05.2019 10:00:00 13,7 9,7 13 7 NW 1013,9 26 42 0,0
20.05.2019 09:00:00 12,9 10,6 9 5 NNW 1014,0 13 54 0,0
20.05.2019 08:00:00 10,6 10,4 4 2 WNW 1013,9 6 6 0,0
20.05.2019 07:00:00 10,1 10,0 2 1 NNW 1013,4 3,0 0 0,0
20.05.2019 06:00:00 9,7 9,5 2 1 WNW 1013,0 1,7 0 0,0
20.05.2019 05:00:00 9,1 9,0 4 2 W 1013,0 1,2 0 0,0
20.05.2019 04:00:00 7,2 6,9 2 1 ENE 1013,0 2,3 0 0,0
20.05.2019 03:00:00 7,6 7,2 0 0 N 1012,9 0,9 0 0,0
20.05.2019 02:00:00 8,1 7,4 8 4 NW 1012,9 7 0 0,0
20.05.2019 01:00:00 9,1 8,7 4 2 NW 1013,1 17 - 0,0
20.05.2019 00:00:00 8,8 8,1 4 2 NW 1013,3 24 0 0,0
19.05.2019 23:00:00 9,1 8,0 8 4 WNW 1013,3 29 0 0,0

tt = temperature
td = dewpoint
ff = wind speed
dd = wind direction
ppp = reduced air pressure
vv = visibility
sd = sunshine duration
rr = precipitation

Next stations